Location: Baix
(44.7118°N, 4.7648°E)
Time: 01:37:41
(UTC+00:00)

Vanguard 3 - Pass Details

Date: 26 November 2020
Orbit: 508 x 3262 km, 33.3° (Epoch: 19 January)

Event Time Altitude Azimuth Distance (km) Brightness Sun altitude
Rises 22:29:43 0° 240° (WSW) 2,717 - -63.5°
Reaches altitude 10° 22:31:59 10° 224° (SW) 1,965 - -63.7°
Maximum altitude 22:35:32 24° 170° (S) 1,533 - -64.0°
Drops below altitude 10° 22:40:25 10° 119° (ESE) 2,791 - -64.4°
Sets 22:44:23 0° 107° (ESE) 4,222 - -64.7°
